2025-155N (64888 NORAD) Tracking and Keplerian Element Data

This shows tracking and keplerian element data for the satellite.

Feedback or suggestion? Click here.




ElementValue
Catalog64888
Name2025-155N
Epoch Orbit5345
Epoch Day354.15477707
Epoch Year2025
RAAN318.2254
Inclination97.4303
Eccentricity0.0010658
Argument of Perigee80.0842
Mean Anonmoly280.1601
Mean Motion15.29998481
Decay Rate0.00017994
L11 64888U 25155N 25354.15477707 .00017994 00000+0 62047-3 0 9990
L22 64888 97.4303 318.2254 0010658 80.0842 280.1601 15.29998481 53450



Live tracking and technical data element details for 2025-155N (NORAD 64888). 2025-155N can be tracked NOW for your location showing map with azimuth and elevation plus other details from your city location.







IsCatalogInMostPopularTable: catalog: 64888, numindb: 4
Update: records affected: 1



GetName: 64888 2025-155N

Hit Count: updated at: Sat, 11 Apr 2026 21:33:36 GMT